owner,sensor,date,latitude,longitude,vertical_datum,wind_speed,wind_to_direction,wind_speed_of_gust,qcFlag 
TCOON,ioos:station:TCOON:146:1,2014-04-01T00:00:00Z,28.1324,-97.0345,0.0,6.9,122.0,8.0,'1111122,1111122,1111122' 
TCOON,ioos:station:TCOON:146:1,2014-04-01T01:00:00Z,28.1324,-97.0345,0.0,6.6,115.0,8.2,'1111122,1111122,1111122' 
TCOON,ioos:station:TCOON:146:1,2014-04-01T02:00:00Z,28.1324,-97.0345,0.0,7.9,118.0,10.0,'1111122,1111122,1111122' 
TCOON,ioos:station:TCOON:146:1,2014-04-01T03:00:00Z,28.1324,-97.0345,0.0,5.9,118.0,7.6,'1111122,1111122,1111122' 
TCOON,ioos:station:TCOON:146:1,2014-04-01T04:00:00Z,28.1324,-97.0345,0.0,6.7,118.0,8.2,'1111122,1111122,1111122' 
TCOON,ioos:station:TCOON:146:1,2014-04-01T05:00:00Z,28.1324,-97.0345,0.0,8.0,124.0,9.3,'1111122,1111122,1111122' 
TCOON,ioos:station:TCOON:146:1,2014-04-01T06:30:00Z,28.1324,-97.0345,0.0,6.6,125.0,8.4,'1111122,1111122,1111122' 
TCOON,ioos:station:TCOON:146:1,2014-04-01T07:00:00Z,28.1324,-97.0345,0.0,6.5,122.0,7.8,'1111122,1111122,1111122' 
TCOON,ioos:station:TCOON:146:1,2014-04-01T08:00:00Z,28.1324,-97.0345,0.0,5.6,119.0,6.7,'1111122,1111122,1111122' 
TCOON,ioos:station:TCOON:146:1,2014-04-01T09:00:00Z,28.1324,-97.0345,0.0,5.0,115.0,6.4,'1111122,1111122,1111122' 
TCOON,ioos:station:TCOON:146:1,2014-04-01T10:00:00Z,28.1324,-97.0345,0.0,5.1,118.0,6.3,'1111122,1111122,1111122' 
TCOON,ioos:station:TCOON:146:1,2014-04-01T11:00:00Z,28.1324,-97.0345,0.0,4.9,122.0,5.8,'1111122,1111122,1111122' 
TCOON,ioos:station:TCOON:146:1,2014-04-01T12:00:00Z,28.1324,-97.0345,0.0,5.6,128.0,6.6,'1111122,1111122,1111122' 
TCOON,ioos:station:TCOON:146:1,2014-04-01T13:00:00Z,28.1324,-97.0345,0.0,6.0,132.0,7.2,'1111122,1111122,1111122' 
TCOON,ioos:station:TCOON:146:1,2014-04-01T14:00:00Z,28.1324,-97.0345,0.0,6.3,133.0,7.4,'1111122,1111122,1111122' 
TCOON,ioos:station:TCOON:146:1,2014-04-01T15:00:00Z,28.1324,-97.0345,0.0,6.5,130.0,7.6,'1111122,1111122,1111122' 
TCOON,ioos:station:TCOON:146:1,2014-04-01T17:00:00Z,28.1324,-97.0345,0.0,6.7,131.0,7.7,'1111122,1111122,1111122' 
TCOON,ioos:station:TCOON:146:1,2014-04-01T23:00:00Z,28.1324,-97.0345,0.0,8.0,141.0,10.3,'1111122,1111122,1111122' 
TCOON,ioos:station:TCOON:146:1,2014-04-02T00:00:00Z,28.1324,-97.0345,0.0,9.4,131.0,11.0,'1111122,1111122,1111122' 
TCOON,ioos:station:TCOON:146:1,2014-04-02T01:00:00Z,28.1324,-97.0345,0.0,9.5,129.0,11.3,'1111122,1111122,1111122' 
TCOON,ioos:station:TCOON:146:1,2014-04-02T02:00:00Z,28.1324,-97.0345,0.0,9.1,128.0,10.9,'1111122,1111122,1111122' 
TCOON,ioos:station:TCOON:146:1,2014-04-02T03:00:00Z,28.1324,-97.0345,0.0,9.4,124.0,11.8,'1111122,1111122,1111122' 
TCOON,ioos:station:TCOON:146:1,2014-04-02T04:00:00Z,28.1324,-97.0345,0.0,9.2,121.0,11.2,'1111122,1111122,1111122' 
TCOON,ioos:station:TCOON:146:1,2014-04-02T05:00:00Z,28.1324,-97.0345,0.0,8.6,124.0,10.3,'1111122,1111122,1111122' 
TCOON,ioos:station:TCOON:146:1,2014-04-02T06:30:00Z,28.1324,-97.0345,0.0,8.4,127.0,10.1,'1111122,1111122,1111122' 
TCOON,ioos:station:TCOON:146:1,2014-04-02T07:00:00Z,28.1324,-97.0345,0.0,8.2,133.0,10.3,'1111122,1111122,1111122' 
TCOON,ioos:station:TCOON:146:1,2014-04-02T08:00:00Z,28.1324,-97.0345,0.0,6.9,129.0,8.4,'1111122,1111122,1111122' 
TCOON,ioos:station:TCOON:146:1,2014-04-02T09:00:00Z,28.1324,-97.0345,0.0,6.8,127.0,8.6,'1111122,1111122,1111122' 
TCOON,ioos:station:TCOON:146:1,2014-04-02T10:00:00Z,28.1324,-97.0345,0.0,7.0,134.0,8.4,'1111122,1111122,1111122' 
TCOON,ioos:station:TCOON:146:1,2014-04-02T11:00:00Z,28.1324,-97.0345,0.0,7.0,121.0,8.7,'1111122,1111122,1111122' 
TCOON,ioos:station:TCOON:146:1,2014-04-02T12:00:00Z,28.1324,-97.0345,0.0,7.8,123.0,9.5,'1111122,1111122,1111122' 
TCOON,ioos:station:TCOON:146:1,2014-04-02T13:00:00Z,28.1324,-97.0345,0.0,8.8,124.0,10.3,'1111122,1111122,1111122' 
TCOON,ioos:station:TCOON:146:1,2014-04-02T14:00:00Z,28.1324,-97.0345,0.0,8.2,123.0,10.9,'1111122,1111122,1111122' 
TCOON,ioos:station:TCOON:146:1,2014-04-02T15:00:00Z,28.1324,-97.0345,0.0,7.8,130.0,9.3,'1111122,1111122,1111122' 
TCOON,ioos:station:TCOON:146:1,2014-04-03T00:00:00Z,28.1324,-97.0345,0.0,10.4,138.0,14.2,'1111122,1111122,1111122' 
TCOON,ioos:station:TCOON:146:1,2014-04-03T01:00:00Z,28.1324,-97.0345,0.0,10.3,139.0,14.0,'1111122,1111122,1111122' 
TCOON,ioos:station:TCOON:146:1,2014-04-03T02:00:00Z,28.1324,-97.0345,0.0,9.6,150.0,11.4,'1111122,1111122,1111122' 
TCOON,ioos:station:TCOON:146:1,2014-04-03T03:00:00Z,28.1324,-97.0345,0.0,9.0,156.0,11.6,'1111122,1111122,1111122' 
TCOON,ioos:station:TCOON:146:1,2014-04-03T04:00:00Z,28.1324,-97.0345,0.0,10.5,153.0,12.8,'1111122,1111122,1111122' 
TCOON,ioos:station:TCOON:146:1,2014-04-03T05:00:00Z,28.1324,-97.0345,0.0,10.4,151.0,12.3,'1111122,1111122,1111122' 
TCOON,ioos:station:TCOON:146:1,2014-04-03T07:00:00Z,28.1324,-97.0345,0.0,9.6,143.0,11.5,'1111122,1111122,1111122' 
TCOON,ioos:station:TCOON:146:1,2014-04-03T08:00:00Z,28.1324,-97.0345,0.0,9.4,143.0,11.5,'1111122,1111122,1111122' 
TCOON,ioos:station:TCOON:146:1,2014-04-03T09:00:00Z,28.1324,-97.0345,0.0,9.9,144.0,12.7,'1111122,1111122,1111122' 
TCOON,ioos:station:TCOON:146:1,2014-04-03T10:00:00Z,28.1324,-97.0345,0.0,8.8,144.0,10.9,'1111122,1111122,1111122' 
TCOON,ioos:station:TCOON:146:1,2014-04-03T11:00:00Z,28.1324,-97.0345,0.0,8.5,145.0,10.3,'1111122,1111122,1111122' 
TCOON,ioos:station:TCOON:146:1,2014-04-03T12:00:00Z,28.1324,-97.0345,0.0,9.3,140.0,11.8,'1111122,1111122,1111122' 
TCOON,ioos:station:TCOON:146:1,2014-04-03T13:00:00Z,28.1324,-97.0345,0.0,9.8,137.0,12.1,'1111122,1111122,1111122' 
TCOON,ioos:station:TCOON:146:1,2014-04-03T14:00:00Z,28.1324,-97.0345,0.0,8.5,133.0,10.5,'1111122,1111122,1111122' 
TCOON,ioos:station:TCOON:146:1,2014-04-03T15:00:00Z,28.1324,-97.0345,0.0,7.3,156.0,10.1,'1111122,1111122,1111122' 
TCOON,ioos:station:TCOON:146:1,2014-04-04T00:00:00Z,28.1324,-97.0345,0.0,6.7,123.0,9.1,'1111122,1111122,1111122' 
TCOON,ioos:station:TCOON:146:1,2014-04-04T01:00:00Z,28.1324,-97.0345,0.0,8.5,132.0,10.2,'1111122,1111122,1111122' 
TCOON,ioos:station:TCOON:146:1,2014-04-04T02:00:00Z,28.1324,-97.0345,0.0,7.2,146.0,9.1,'1111122,1111122,1111122' 
TCOON,ioos:station:TCOON:146:1,2014-04-04T03:00:00Z,28.1324,-97.0345,0.0,8.0,143.0,9.7,'1111122,1111122,1111122' 
TCOON,ioos:station:TCOON:146:1,2014-04-04T04:00:00Z,28.1324,-97.0345,0.0,8.0,147.0,9.7,'1111122,1111122,1111122' 
TCOON,ioos:station:TCOON:146:1,2014-04-04T05:00:00Z,28.1324,-97.0345,0.0,6.3,157.0,7.8,'1111122,1111122,1111122' 
TCOON,ioos:station:TCOON:146:1,2014-04-04T06:30:00Z,28.1324,-97.0345,0.0,3.8,144.0,5.1,'1111122,1111122,1111122' 
TCOON,ioos:station:TCOON:146:1,2014-04-04T07:00:00Z,28.1324,-97.0345,0.0,2.3,171.0,3.3,'1111122,1111122,1111122' 
TCOON,ioos:station:TCOON:146:1,2014-04-04T08:00:00Z,28.1324,-97.0345,0.0,1.0,222.0,2.1,'1111122,1111122,1111122' 
TCOON,ioos:station:TCOON:146:1,2014-04-04T09:00:00Z,28.1324,-97.0345,0.0,5.1,9.0,6.1,'1111122,1111122,1111122' 
TCOON,ioos:station:TCOON:146:1,2014-04-04T10:00:00Z,28.1324,-97.0345,0.0,3.6,41.0,5.0,'1111122,1111122,1111122' 
TCOON,ioos:station:TCOON:146:1,2014-04-04T11:00:00Z,28.1324,-97.0345,0.0,6.5,71.0,8.7,'1111122,1111122,1111122' 
TCOON,ioos:station:TCOON:146:1,2014-04-04T12:00:00Z,28.1324,-97.0345,0.0,4.2,347.0,5.9,'1111122,1111122,1111122' 
TCOON,ioos:station:TCOON:146:1,2014-04-04T13:00:00Z,28.1324,-97.0345,0.0,10.8,353.0,13.7,'1111122,1111122,1111122' 
TCOON,ioos:station:TCOON:146:1,2014-04-04T14:00:00Z,28.1324,-97.0345,0.0,13.2,357.0,18.3,'1111122,1111122,1111122' 
TCOON,ioos:station:TCOON:146:1,2014-04-04T15:00:00Z,28.1324,-97.0345,0.0,12.8,8.0,15.9,'1111122,1111122,1111122' 
TCOON,ioos:station:TCOON:146:1,2014-04-04T16:00:00Z,28.1324,-97.0345,0.0,13.4,10.0,17.2,'1111122,1111122,1111122' 
TCOON,ioos:station:TCOON:146:1,2014-04-04T17:00:00Z,28.1324,-97.0345,0.0,11.0,8.0,15.0,'1111122,1111122,1111122' 
TCOON,ioos:station:TCOON:146:1,2014-04-04T18:00:00Z,28.1324,-97.0345,0.0,9.3,5.0,11.7,'1111122,1111122,1111122' 
TCOON,ioos:station:TCOON:146:1,2014-04-04T19:00:00Z,28.1324,-97.0345,0.0,8.4,8.0,10.7,'1111122,1111122,1111122' 
TCOON,ioos:station:TCOON:146:1,2014-04-04T23:00:00Z,28.1324,-97.0345,0.0,8.3,30.0,10.6,'1111122,1111122,1111122' 
TCOON,ioos:station:TCOON:146:1,2014-04-05T00:00:00Z,28.1324,-97.0345,0.0,7.5,27.0,10.2,'1111122,1111122,1111122' 
TCOON,ioos:station:TCOON:146:1,2014-04-05T01:00:00Z,28.1324,-97.0345,0.0,6.7,14.0,8.0,'1111122,1111122,1111122' 
TCOON,ioos:station:TCOON:146:1,2014-04-05T02:00:00Z,28.1324,-97.0345,0.0,7.5,10.0,8.6,'1111122,1111122,1111122' 
TCOON,ioos:station:TCOON:146:1,2014-04-05T03:00:00Z,28.1324,-97.0345,0.0,7.0,15.0,8.3,'1111122,1111122,1111122' 
TCOON,ioos:station:TCOON:146:1,2014-04-05T04:00:00Z,28.1324,-97.0345,0.0,6.7,15.0,7.9,'1111122,1111122,1111122' 
TCOON,ioos:station:TCOON:146:1,2014-04-05T05:00:00Z,28.1324,-97.0345,0.0,6.7,17.0,7.9,'1111122,1111122,1111122' 
TCOON,ioos:station:TCOON:146:1,2014-04-05T06:00:00Z,28.1324,-97.0345,0.0,6.5,22.0,7.5,'1111122,1111122,1111122' 
TCOON,ioos:station:TCOON:146:1,2014-04-05T07:00:00Z,28.1324,-97.0345,0.0,6.3,33.0,7.5,'1111122,1111122,1111122' 
TCOON,ioos:station:TCOON:146:1,2014-04-05T08:00:00Z,28.1324,-97.0345,0.0,5.7,25.0,6.6,'1111122,1111122,1111122' 
TCOON,ioos:station:TCOON:146:1,2014-04-05T09:00:00Z,28.1324,-97.0345,0.0,6.8,16.0,7.9,'1111122,1111122,1111122' 
TCOON,ioos:station:TCOON:146:1,2014-04-05T10:00:00Z,28.1324,-97.0345,0.0,6.3,27.0,7.5,'1111122,1111122,1111122' 
TCOON,ioos:station:TCOON:146:1,2014-04-05T11:00:00Z,28.1324,-97.0345,0.0,6.3,31.0,8.3,'1111122,1111122,1111122' 
TCOON,ioos:station:TCOON:146:1,2014-04-05T12:00:00Z,28.1324,-97.0345,0.0,8.1,33.0,10.7,'1111122,1111122,1111122' 
TCOON,ioos:station:TCOON:146:1,2014-04-05T13:00:00Z,28.1324,-97.0345,0.0,5.7,43.0,7.8,'1111122,1111122,1111122' 
TCOON,ioos:station:TCOON:146:1,2014-04-05T14:00:00Z,28.1324,-97.0345,0.0,7.7,48.0,10.2,'1111122,1111122,1111122' 
TCOON,ioos:station:TCOON:146:1,2014-04-05T15:00:00Z,28.1324,-97.0345,0.0,7.0,44.0,9.3,'1111122,1111122,1111122' 
TCOON,ioos:station:TCOON:146:1,2014-04-05T16:00:00Z,28.1324,-97.0345,0.0,8.0,53.0,10.5,'1111122,1111122,1111122' 
TCOON,ioos:station:TCOON:146:1,2014-04-05T17:00:00Z,28.1324,-97.0345,0.0,8.8,67.0,11.3,'1111122,1111122,1111122' 
TCOON,ioos:station:TCOON:146:1,2014-04-05T18:00:00Z,28.1324,-97.0345,0.0,7.1,63.0,9.1,'1111122,1111122,1111122' 
TCOON,ioos:station:TCOON:146:1,2014-04-05T21:00:00Z,28.1324,-97.0345,0.0,8.4,60.0,11.3,'1111122,1111122,1111122' 
TCOON,ioos:station:TCOON:146:1,2014-04-06T00:00:00Z,28.1324,-97.0345,0.0,9.2,59.0,11.6,'1111122,1111122,1111122' 
TCOON,ioos:station:TCOON:146:1,2014-04-06T01:00:00Z,28.1324,-97.0345,0.0,6.7,56.0,8.4,'1111122,1111122,1111122' 
TCOON,ioos:station:TCOON:146:1,2014-04-06T02:00:00Z,28.1324,-97.0345,0.0,8.9,60.0,11.1,'1111122,1111122,1111122' 
TCOON,ioos:station:TCOON:146:1,2014-04-06T03:00:00Z,28.1324,-97.0345,0.0,7.6,59.0,9.7,'1111122,1111122,1111122' 
TCOON,ioos:station:TCOON:146:1,2014-04-06T04:00:00Z,28.1324,-97.0345,0.0,8.6,59.0,10.7,'1111122,1111122,1111122' 
TCOON,ioos:station:TCOON:146:1,2014-04-06T05:00:00Z,28.1324,-97.0345,0.0,7.6,69.0,9.5,'1111122,1111122,1111122' 
TCOON,ioos:station:TCOON:146:1,2014-04-06T06:30:00Z,28.1324,-97.0345,0.0,6.8,63.0,8.3,'1111122,1111122,1111122' 
TCOON,ioos:station:TCOON:146:1,2014-04-06T07:00:00Z,28.1324,-97.0345,0.0,6.9,67.0,8.4,'1111122,1111122,1111122' 
TCOON,ioos:station:TCOON:146:1,2014-04-06T08:00:00Z,28.1324,-97.0345,0.0,5.8,63.0,7.0,'1111122,1111122,1111122' 
TCOON,ioos:station:TCOON:146:1,2014-04-06T10:00:00Z,28.1324,-97.0345,0.0,6.0,79.0,7.7,'1111122,1111122,1111122' 
TCOON,ioos:station:TCOON:146:1,2014-04-06T12:00:00Z,28.1324,-97.0345,0.0,4.3,95.0,5.1,'1111122,1111122,1111122' 
TCOON,ioos:station:TCOON:146:1,2014-04-06T13:30:00Z,28.1324,-97.0345,0.0,4.8,125.0,5.8,'1111122,1111122,1111122' 
TCOON,ioos:station:TCOON:146:1,2014-04-06T14:00:00Z,28.1324,-97.0345,0.0,6.0,147.0,7.2,'1111122,1111122,1111122' 
TCOON,ioos:station:TCOON:146:1,2014-04-06T15:00:00Z,28.1324,-97.0345,0.0,4.9,163.0,6.6,'1111122,1111122,1111122' 
TCOON,ioos:station:TCOON:146:1,2014-04-06T16:00:00Z,28.1324,-97.0345,0.0,4.9,176.0,6.3,'1111122,1111122,1111122' 
TCOON,ioos:station:TCOON:146:1,2014-04-06T17:00:00Z,28.1324,-97.0345,0.0,5.0,183.0,6.2,'1111122,1111122,1111122' 
TCOON,ioos:station:TCOON:146:1,2014-04-06T18:00:00Z,28.1324,-97.0345,0.0,3.3,148.0,4.2,'1111122,1111122,1111122' 
TCOON,ioos:station:TCOON:146:1,2014-04-06T19:00:00Z,28.1324,-97.0345,0.0,1.8,212.0,2.7,'1111122,1111122,1111122' 
TCOON,ioos:station:TCOON:146:1,2014-04-06T20:00:00Z,28.1324,-97.0345,0.0,1.9,223.0,2.2,'1111122,1111122,1111122' 
TCOON,ioos:station:TCOON:146:1,2014-04-06T21:00:00Z,28.1324,-97.0345,0.0,6.5,307.0,7.8,'1111122,1111122,1111122' 
TCOON,ioos:station:TCOON:146:1,2014-04-06T22:00:00Z,28.1324,-97.0345,0.0,9.1,329.0,12.2,'1111122,1111122,1111122' 
TCOON,ioos:station:TCOON:146:1,2014-04-06T23:00:00Z,28.1324,-97.0345,0.0,10.3,337.0,11.7,'1111122,1111122,1111122' 
TCOON,ioos:station:TCOON:146:1,2014-04-07T00:00:00Z,28.1324,-97.0345,0.0,8.9,339.0,11.0,'1111122,1111122,1111122' 
TCOON,ioos:station:TCOON:146:1,2014-04-07T01:00:00Z,28.1324,-97.0345,0.0,6.4,347.0,7.4,'1111122,1111122,1111122' 
TCOON,ioos:station:TCOON:146:1,2014-04-07T02:00:00Z,28.1324,-97.0345,0.0,6.6,355.0,8.0,'1111122,1111122,1111122' 
TCOON,ioos:station:TCOON:146:1,2014-04-07T03:00:00Z,28.1324,-97.0345,0.0,7.0,355.0,8.7,'1111122,1111122,1111122' 
TCOON,ioos:station:TCOON:146:1,2014-04-07T04:00:00Z,28.1324,-97.0345,0.0,5.8,347.0,7.1,'1111122,1111122,1111122' 
TCOON,ioos:station:TCOON:146:1,2014-04-07T05:00:00Z,28.1324,-97.0345,0.0,8.2,350.0,10.2,'1111122,1111122,1111122' 
TCOON,ioos:station:TCOON:146:1,2014-04-07T06:00:00Z,28.1324,-97.0345,0.0,6.5,16.0,8.3,'1111122,1111122,1111122' 
TCOON,ioos:station:TCOON:146:1,2014-04-07T07:00:00Z,28.1324,-97.0345,0.0,7.2,353.0,9.3,'1111122,1111122,1111122' 
TCOON,ioos:station:TCOON:146:1,2014-04-07T08:00:00Z,28.1324,-97.0345,0.0,5.9,355.0,7.2,'1111122,1111122,1111122' 
TCOON,ioos:station:TCOON:146:1,2014-04-07T09:00:00Z,28.1324,-97.0345,0.0,3.3,356.0,4.4,'1111122,1111122,1111122' 
TCOON,ioos:station:TCOON:146:1,2014-04-07T10:00:00Z,28.1324,-97.0345,0.0,5.0,343.0,6.7,'1111122,1111122,1111122' 
TCOON,ioos:station:TCOON:146:1,2014-04-07T11:00:00Z,28.1324,-97.0345,0.0,5.7,338.0,7.2,'1111122,1111122,1111122' 
TCOON,ioos:station:TCOON:146:1,2014-04-07T12:00:00Z,28.1324,-97.0345,0.0,4.3,341.0,5.3,'1111122,1111122,1111122' 
TCOON,ioos:station:TCOON:146:1,2014-04-07T13:00:00Z,28.1324,-97.0345,0.0,6.3,336.0,7.5,'1111122,1111122,1111122' 
TCOON,ioos:station:TCOON:146:1,2014-04-07T14:00:00Z,28.1324,-97.0345,0.0,4.9,347.0,6.3,'1111122,1111122,1111122' 
TCOON,ioos:station:TCOON:146:1,2014-04-07T15:00:00Z,28.1324,-97.0345,0.0,6.5,357.0,8.2,'1111122,1111122,1111122' 
TCOON,ioos:station:TCOON:146:1,2014-04-07T16:00:00Z,28.1324,-97.0345,0.0,6.0,1.0,8.4,'1111122,1111122,1111122' 
TCOON,ioos:station:TCOON:146:1,2014-04-07T17:00:00Z,28.1324,-97.0345,0.0,5.9,11.0,7.2,'1111122,1111122,1111122' 
TCOON,ioos:station:TCOON:146:1,2014-04-07T20:00:00Z,28.1324,-97.0345,0.0,4.3,114.0,5.3,'1111122,1111122,1111122' 
TCOON,ioos:station:TCOON:146:1,2014-04-07T21:00:00Z,28.1324,-97.0345,0.0,5.8,116.0,6.7,'1111122,1111122,1111122' 
TCOON,ioos:station:TCOON:146:1,2014-04-07T22:00:00Z,28.1324,-97.0345,0.0,6.6,131.0,7.3,'1111122,1111122,1111122' 
TCOON,ioos:station:TCOON:146:1,2014-04-07T23:00:00Z,28.1324,-97.0345,0.0,7.3,139.0,8.9,'1111122,1111122,1111122' 
TCOON,ioos:station:TCOON:146:1,2014-04-08T00:00:00Z,28.1324,-97.0345,0.0,5.3,127.0,6.8,'1111122,1111122,1111122' 
TCOON,ioos:station:TCOON:146:1,2014-04-08T01:00:00Z,28.1324,-97.0345,0.0,2.2,299.0,5.0,'1111122,1111122,1111122' 
TCOON,ioos:station:TCOON:146:1,2014-04-08T02:00:00Z,28.1324,-97.0345,0.0,1.2,39.0,1.8,'1111122,1111122,1111122' 
TCOON,ioos:station:TCOON:146:1,2014-04-08T03:00:00Z,28.1324,-97.0345,0.0,5.0,157.0,6.3,'1111122,1111122,1111122' 
TCOON,ioos:station:TCOON:146:1,2014-04-08T04:00:00Z,28.1324,-97.0345,0.0,5.8,296.0,13.2,'1111122,1111122,1111122' 
TCOON,ioos:station:TCOON:146:1,2014-04-08T05:00:00Z,28.1324,-97.0345,0.0,5.8,339.0,7.3,'1111122,1111122,1111122' 
TCOON,ioos:station:TCOON:146:1,2014-04-08T07:00:00Z,28.1324,-97.0345,0.0,5.5,294.0,6.5,'1111122,1111122,1111122' 
TCOON,ioos:station:TCOON:146:1,2014-04-08T08:00:00Z,28.1324,-97.0345,0.0,8.5,290.0,10.2,'1111122,1111122,1111122' 
TCOON,ioos:station:TCOON:146:1,2014-04-08T09:00:00Z,28.1324,-97.0345,0.0,7.9,299.0,9.5,'1111122,1111122,1111122' 
TCOON,ioos:station:TCOON:146:1,2014-04-08T10:00:00Z,28.1324,-97.0345,0.0,7.0,298.0,8.0,'1111122,1111122,1111122' 
TCOON,ioos:station:TCOON:146:1,2014-04-08T11:00:00Z,28.1324,-97.0345,0.0,6.6,280.0,7.7,'1111122,1111122,1111122' 
TCOON,ioos:station:TCOON:146:1,2014-04-08T12:00:00Z,28.1324,-97.0345,0.0,5.4,280.0,6.3,'1111122,1111122,1111122' 
TCOON,ioos:station:TCOON:146:1,2014-04-08T13:00:00Z,28.1324,-97.0345,0.0,6.0,282.0,8.2,'1111122,1111122,1111122' 
TCOON,ioos:station:TCOON:146:1,2014-04-08T14:00:00Z,28.1324,-97.0345,0.0,7.8,282.0,9.3,'1111122,1111122,1111122' 
TCOON,ioos:station:TCOON:146:1,2014-04-08T15:00:00Z,28.1324,-97.0345,0.0,7.9,314.0,10.4,'1111122,1111122,1111122' 
TCOON,ioos:station:TCOON:146:1,2014-04-08T16:00:00Z,28.1324,-97.0345,0.0,7.7,332.0,10.0,'1111122,1111122,1111122' 
TCOON,ioos:station:TCOON:146:1,2014-04-08T17:00:00Z,28.1324,-97.0345,0.0,9.2,330.0,11.9,'1111122,1111122,1111122' 
TCOON,ioos:station:TCOON:146:1,2014-04-08T18:00:00Z,28.1324,-97.0345,0.0,9.5,322.0,12.5,'1111122,1111122,1111122' 
TCOON,ioos:station:TCOON:146:1,2014-04-08T19:00:00Z,28.1324,-97.0345,0.0,8.5,320.0,11.3,'1111122,1111122,1111122' 
TCOON,ioos:station:TCOON:146:1,2014-04-08T22:00:00Z,28.1324,-97.0345,0.0,9.9,325.0,14.0,'1111122,1111122,1111122' 
TCOON,ioos:station:TCOON:146:1,2014-04-08T23:00:00Z,28.1324,-97.0345,0.0,10.5,329.0,13.4,'1111122,1111122,1111122' 
TCOON,ioos:station:TCOON:146:1,2014-04-09T00:00:00Z,28.1324,-97.0345,0.0,7.7,329.0,10.5,'1111122,1111122,1111122' 
TCOON,ioos:station:TCOON:146:1,2014-04-09T01:00:00Z,28.1324,-97.0345,0.0,4.8,345.0,5.8,'1111122,1111122,1111122' 
TCOON,ioos:station:TCOON:146:1,2014-04-09T02:00:00Z,28.1324,-97.0345,0.0,3.2,29.0,3.5,'1111122,1111122,1111122' 
TCOON,ioos:station:TCOON:146:1,2014-04-09T03:00:00Z,28.1324,-97.0345,0.0,2.3,48.0,3.1,'1111122,1111122,1111122' 
TCOON,ioos:station:TCOON:146:1,2014-04-09T04:00:00Z,28.1324,-97.0345,0.0,3.7,65.0,4.1,'1111122,1111122,1111122' 
TCOON,ioos:station:TCOON:146:1,2014-04-09T05:00:00Z,28.1324,-97.0345,0.0,3.4,83.0,4.6,'1111122,1111122,1111122' 
TCOON,ioos:station:TCOON:146:1,2014-04-09T07:00:00Z,28.1324,-97.0345,0.0,3.8,101.0,4.6,'1111122,1111122,1111122' 
TCOON,ioos:station:TCOON:146:1,2014-04-09T08:00:00Z,28.1324,-97.0345,0.0,5.0,130.0,6.1,'1111122,1111122,1111122' 
TCOON,ioos:station:TCOON:146:1,2014-04-09T09:00:00Z,28.1324,-97.0345,0.0,3.3,117.0,4.3,'1111122,1111122,1111122' 
TCOON,ioos:station:TCOON:146:1,2014-04-09T10:00:00Z,28.1324,-97.0345,0.0,4.0,134.0,4.7,'1111122,1111122,1111122' 
TCOON,ioos:station:TCOON:146:1,2014-04-09T11:00:00Z,28.1324,-97.0345,0.0,3.3,137.0,4.2,'1111122,1111122,1111122' 
TCOON,ioos:station:TCOON:146:1,2014-04-09T12:00:00Z,28.1324,-97.0345,0.0,2.2,180.0,2.8,'1111122,1111122,1111122' 
TCOON,ioos:station:TCOON:146:1,2014-04-09T13:00:00Z,28.1324,-97.0345,0.0,2.5,153.0,3.2,'1111122,1111122,1111122' 
TCOON,ioos:station:TCOON:146:1,2014-04-09T14:00:00Z,28.1324,-97.0345,0.0,3.8,161.0,5.6,'1111122,1111122,1111122' 
TCOON,ioos:station:TCOON:146:1,2014-04-09T15:00:00Z,28.1324,-97.0345,0.0,3.7,253.0,4.5,'1111122,1111122,1111122' 
TCOON,ioos:station:TCOON:146:1,2014-04-09T16:00:00Z,28.1324,-97.0345,0.0,0.8,326.0,3.1,'1111122,1111122,1111122' 
TCOON,ioos:station:TCOON:146:1,2014-04-09T17:00:00Z,28.1324,-97.0345,0.0,6.3,150.0,7.9,'1111122,1111122,1111122' 
TCOON,ioos:station:TCOON:146:1,2014-04-09T18:00:00Z,28.1324,-97.0345,0.0,7.4,151.0,9.2,'1111122,1111122,1111122' 
TCOON,ioos:station:TCOON:146:1,2014-04-09T19:00:00Z,28.1324,-97.0345,0.0,7.2,147.0,8.7,'1111122,1111122,1111122' 
TCOON,ioos:station:TCOON:146:1,2014-04-09T20:00:00Z,28.1324,-97.0345,0.0,6.5,137.0,7.9,'1111122,1111122,1111122' 
TCOON,ioos:station:TCOON:146:1,2014-04-09T21:00:00Z,28.1324,-97.0345,0.0,7.3,139.0,8.5,'1111122,1111122,1111122' 
TCOON,ioos:station:TCOON:146:1,2014-04-09T22:00:00Z,28.1324,-97.0345,0.0,8.4,132.0,9.9,'1111122,1111122,1111122' 
TCOON,ioos:station:TCOON:146:1,2014-04-10T00:00:00Z,28.1324,-97.0345,0.0,8.4,136.0,11.0,'1111122,1111122,1111122' 
TCOON,ioos:station:TCOON:146:1,2014-04-10T01:00:00Z,28.1324,-97.0345,0.0,8.4,140.0,10.6,'1111122,1111122,1111122' 
TCOON,ioos:station:TCOON:146:1,2014-04-10T02:00:00Z,28.1324,-97.0345,0.0,9.0,140.0,10.3,'1111122,1111122,1111122' 
TCOON,ioos:station:TCOON:146:1,2014-04-10T03:00:00Z,28.1324,-97.0345,0.0,8.9,142.0,10.5,'1111122,1111122,1111122' 
TCOON,ioos:station:TCOON:146:1,2014-04-10T04:00:00Z,28.1324,-97.0345,0.0,8.9,147.0,10.6,'1111122,1111122,1111122' 
TCOON,ioos:station:TCOON:146:1,2014-04-10T05:00:00Z,28.1324,-97.0345,0.0,9.2,149.0,10.8,'1111122,1111122,1111122' 
TCOON,ioos:station:TCOON:146:1,2014-04-10T06:30:00Z,28.1324,-97.0345,0.0,8.7,156.0,10.7,'1111122,1111122,1111122' 
TCOON,ioos:station:TCOON:146:1,2014-04-10T07:00:00Z,28.1324,-97.0345,0.0,9.3,153.0,11.7,'1111122,1111122,1111122' 
TCOON,ioos:station:TCOON:146:1,2014-04-10T08:00:00Z,28.1324,-97.0345,0.0,8.6,156.0,10.1,'1111122,1111122,1111122' 
TCOON,ioos:station:TCOON:146:1,2014-04-10T09:00:00Z,28.1324,-97.0345,0.0,7.7,160.0,9.6,'1111122,1111122,1111122' 
TCOON,ioos:station:TCOON:146:1,2014-04-10T10:00:00Z,28.1324,-97.0345,0.0,7.1,161.0,8.9,'1111122,1111122,1111122' 
TCOON,ioos:station:TCOON:146:1,2014-04-10T11:00:00Z,28.1324,-97.0345,0.0,7.2,160.0,8.7,'1111122,1111122,1111122' 
TCOON,ioos:station:TCOON:146:1,2014-04-10T12:00:00Z,28.1324,-97.0345,0.0,7.4,158.0,9.0,'1111122,1111122,1111122' 
TCOON,ioos:station:TCOON:146:1,2014-04-10T13:00:00Z,28.1324,-97.0345,0.0,7.3,159.0,9.0,'1111122,1111122,1111122' 
TCOON,ioos:station:TCOON:146:1,2014-04-10T14:00:00Z,28.1324,-97.0345,0.0,8.8,158.0,10.6,'1111122,1111122,1111122' 
TCOON,ioos:station:TCOON:146:1,2014-04-10T15:00:00Z,28.1324,-97.0345,0.0,9.0,160.0,11.7,'1111122,1111122,1111122' 
TCOON,ioos:station:TCOON:146:1,2014-04-10T16:00:00Z,28.1324,-97.0345,0.0,10.0,161.0,12.6,'1111122,1111122,1111122' 
TCOON,ioos:station:TCOON:146:1,2014-04-10T17:00:00Z,28.1324,-97.0345,0.0,9.8,159.0,12.9,'1111122,1111122,1111122' 
TCOON,ioos:station:TCOON:146:1,2014-04-10T18:00:00Z,28.1324,-97.0345,0.0,10.1,156.0,12.6,'1111122,1111122,1111122' 
TCOON,ioos:station:TCOON:146:1,2014-04-10T19:00:00Z,28.1324,-97.0345,0.0,10.4,157.0,13.6,'1111122,1111122,1111122' 
TCOON,ioos:station:TCOON:146:1,2014-04-10T20:00:00Z,28.1324,-97.0345,0.0,10.9,152.0,13.5,'1111122,1111122,1111122' 
TCOON,ioos:station:TCOON:146:1,2014-04-10T21:00:00Z,28.1324,-97.0345,0.0,11.0,149.0,13.5,'1111122,1111122,1111122' 
TCOON,ioos:station:TCOON:146:1,2014-04-10T22:00:00Z,28.1324,-97.0345,0.0,11.3,144.0,13.6,'1111122,1111122,1111122' 
TCOON,ioos:station:TCOON:146:1,2014-04-10T23:00:00Z,28.1324,-97.0345,0.0,11.8,143.0,14.0,'1111122,1111122,1111122' 
TCOON,ioos:station:TCOON:146:1,2014-04-11T00:00:00Z,28.1324,-97.0345,0.0,11.8,143.0,13.9,'1111122,1111122,1111122' 
TCOON,ioos:station:TCOON:146:1,2014-04-11T01:00:00Z,28.1324,-97.0345,0.0,10.9,143.0,13.4,'1111122,1111122,1111122' 
TCOON,ioos:station:TCOON:146:1,2014-04-11T02:00:00Z,28.1324,-97.0345,0.0,10.5,141.0,12.4,'1111122,1111122,1111122' 
TCOON,ioos:station:TCOON:146:1,2014-04-11T03:00:00Z,28.1324,-97.0345,0.0,10.0,143.0,11.8,'1111122,1111122,1111122' 
TCOON,ioos:station:TCOON:146:1,2014-04-11T04:00:00Z,28.1324,-97.0345,0.0,9.8,147.0,11.6,'1111122,1111122,1111122' 
TCOON,ioos:station:TCOON:146:1,2014-04-11T05:00:00Z,28.1324,-97.0345,0.0,9.2,152.0,11.9,'1111122,1111122,1111122' 
TCOON,ioos:station:TCOON:146:1,2014-04-11T07:00:00Z,28.1324,-97.0345,0.0,7.3,162.0,9.4,'1111122,1111122,1111122' 
TCOON,ioos:station:TCOON:146:1,2014-04-11T08:00:00Z,28.1324,-97.0345,0.0,7.6,158.0,9.5,'1111122,1111122,1111122' 